Torna al catalogo

NOAA 16 DEB

AttivoSSO
NORAD 41495·DEBRIS·🇺🇸 United States

Lanciato Sep 21, 2000 da Vandenberg Space Force Base

Loading…

Prossimi Passaggi (prossime 24 ore)

TLE

AggiornatoSource: Space-Track

Epoca: Sep 13, 2026, 11:13 UTC

1 41495U 00055LT  26256.46789972  .00001782  00000-0  89638-3 0  9991
2 41495  98.6770 262.1092 0035964 353.2216   6.8468 14.17362068540248

Traccia NOAA 16 DEB in tempo reale con AllMySat

Download on the App Store